Prestonsburg, KY

4:46 AM EDT on September 21, 2017 (GMT -0400)
Prestonsburg

Weather History for KK22 - February, 2013

Change the Weather History Date:

Sunday, February 3, 2013

  Actual Average (KJKL) Record (KJKL)
Temperature  
Mean Temperature 28 °F -  
Max Temperature 30 °F 44 °F 65 °F (2016)
Min Temperature 25 °F 28 °F 1 °F (1996)
Degree Days  
Heating Degree Days 37    
Moisture  
Dew Point 25 °F    
Average Humidity 84    
Maximum Humidity 94    
Minimum Humidity 67    
Precipitation  
Precipitation 0.00 in - - ()
Sea Level Pressure  
Sea Level Pressure 29.99 in    
Wind  
Wind Speed 6 mph (West)    
Max Wind Speed 12 mph    
Max Gust Speed 23 mph    
Visibility 9 miles    
Events Snow    
Averages and records for this station are not official NWS values.
T = Trace of Precipitation, MM = Missing Value Source: NWS Daily Summary

Daily Weather History Graph

Daily Weather History Graph

Search for Another Location

Airport or City:

Trip Planner

Search our weather history database for the weather conditions in past years. The results will help you decide how hot, cold, wet, or windy it might be!

Date:

Astronomy

Feb. 03, 2013 Rise Set
Actual Time 7:32 AM EST 5:56 PM EST
Civil Twilight 7:05 AM EST 6:24 PM EST
Nautical Twilight 6:33 AM EST 6:55 PM EST
Astronomical Twilight 6:03 AM EST 7:26 PM EST
Moon 12:58 AM EST (2/3) 11:33 AM EST (2/3)
Length of Visible Light 11h 19m
Length of Day
10h 24m
Waning Gibbous, 49% of the Moon is Illuminated
Feb 3
Waning Gibbous
Feb 10
New
Feb 17
First Quarter
Feb 25
Full
Mar 4
Last Quarter

Hourly Weather History & Observations

Time (EST) Temp. Windchill Dew Point Humidity Pressure Visibility Wind Dir Wind Speed Gust Speed Precip Events Conditions
12:15 AM 30.7 °F 26.0 °F 29.1 °F 94% 30.01 in 5.0 mi NW 4.6 mph - N/A Snow Light Snow
12:35 AM 30.2 °F 24.3 °F 28.4 °F 93% 30.01 in 3.0 mi NW 5.8 mph - N/A Snow Light Snow
12:55 AM 29.3 °F 22.3 °F 27.9 °F 94% 30.02 in 1.5 mi NW 6.9 mph - N/A Snow Light Snow
1:15 AM 29.1 °F 23.0 °F 27.0 °F 92% 30.01 in 2.5 mi West 5.8 mph - N/A Snow Light Snow
1:35 AM 28.8 °F 23.7 °F 26.1 °F 90% 30.01 in 10.0 mi WNW 4.6 mph - N/A   Overcast
1:55 AM 28.4 °F 22.2 °F 25.3 °F 88% 30.00 in 10.0 mi West 5.8 mph - N/A   Overcast
2:15 AM 28.4 °F - 24.8 °F 86% 30.00 in 10.0 mi Calm Calm - N/A   Overcast
2:35 AM 28.0 °F 24.2 °F 25.5 °F 90% 29.99 in 10.0 mi SW 3.5 mph - N/A   Overcast
2:55 AM 27.9 °F 24.0 °F 25.7 °F 92% 29.99 in 10.0 mi WSW 3.5 mph - N/A   Overcast
3:15 AM 27.5 °F 23.6 °F 25.7 °F 93% 29.98 in 10.0 mi SW 3.5 mph - N/A   Overcast
3:35 AM 27.5 °F 23.6 °F 25.3 °F 92% 29.97 in 10.0 mi WSW 3.5 mph - N/A   Overcast
3:55 AM 27.3 °F 23.4 °F 25.3 °F 92% 29.97 in 10.0 mi SW 3.5 mph - N/A   Overcast
4:15 AM 27.3 °F - 25.2 °F 92% 29.95 in 10.0 mi Calm Calm - N/A   Overcast
4:35 AM 27.5 °F 23.6 °F 24.8 °F 90% 29.95 in 10.0 mi SSW 3.5 mph - N/A   Overcast
4:55 AM 27.5 °F - 24.8 °F 90% 29.94 in 10.0 mi Calm Calm - N/A   Overcast
5:15 AM 27.9 °F 22.6 °F 25.3 °F 90% 29.94 in 10.0 mi SW 4.6 mph - N/A   Overcast
5:35 AM 27.9 °F 22.6 °F 25.5 °F 91% 29.93 in 10.0 mi SW 4.6 mph - N/A   Overcast
5:55 AM 28.4 °F 23.3 °F 25.7 °F 90% 29.92 in 10.0 mi WSW 4.6 mph - N/A   Overcast
6:15 AM 28.8 °F 23.7 °F 26.1 °F 90% 29.92 in 10.0 mi WSW 4.6 mph - N/A   Overcast
6:35 AM 29.1 °F 23.0 °F 26.4 °F 90% 29.92 in 10.0 mi WSW 5.8 mph - N/A   Overcast
6:55 AM 29.3 °F 23.2 °F 26.6 °F 90% 29.92 in 10.0 mi SW 5.8 mph - N/A   Overcast
7:15 AM 29.7 °F 22.8 °F 27.0 °F 90% 29.91 in 10.0 mi WSW 6.9 mph - N/A   Overcast
7:55 AM 30.2 °F 22.6 °F 26.8 °F 87% 29.91 in 10.0 mi WSW 8.1 mph - N/A   Overcast
8:15 AM 30.4 °F 25.6 °F 27.0 °F 87% 29.92 in 10.0 mi West 4.6 mph - N/A   Overcast
8:35 AM 30.7 °F 26.0 °F 27.3 °F 87% 29.91 in 10.0 mi West 4.6 mph - N/A   Overcast
8:55 AM 30.9 °F 25.2 °F 27.3 °F 86% 29.92 in 10.0 mi West 5.8 mph - N/A   Overcast
9:15 AM 30.9 °F 26.2 °F 27.5 °F 87% 29.92 in 10.0 mi West 4.6 mph - N/A   Overcast
9:35 AM 30.7 °F 24.1 °F 27.5 °F 88% 29.92 in 10.0 mi WNW 6.9 mph - N/A   Overcast
9:55 AM 30.7 °F 26.0 °F 27.9 °F 89% 29.92 in 10.0 mi West 4.6 mph - N/A   Overcast
10:15 AM 30.2 °F 25.4 °F 28.2 °F 92% 29.93 in 3.0 mi WNW 4.6 mph - N/A Snow Light Snow
10:35 AM 30.2 °F 23.4 °F 28.0 °F 92% 29.93 in 4.0 mi WNW 6.9 mph - N/A Snow Light Snow
10:55 AM 30.2 °F 24.3 °F 27.1 °F 88% 29.93 in 7.0 mi WNW 5.8 mph - N/A Snow Light Snow
11:15 AM 30.2 °F 23.4 °F 26.8 °F 87% 29.93 in 10.0 mi WNW 6.9 mph - N/A   Overcast
11:35 AM 30.2 °F 24.3 °F 26.8 °F 87% 29.93 in 10.0 mi West 5.8 mph - N/A   Overcast
11:55 AM 30.2 °F 24.3 °F 26.6 °F 86% 29.93 in 10.0 mi West 5.8 mph - N/A   Overcast
12:15 PM 30.6 °F 22.4 °F 26.6 °F 85% 29.93 in 10.0 mi West 9.2 mph - N/A   Overcast
12:35 PM 30.6 °F 23.8 °F 26.4 °F 85% 29.93 in 10.0 mi West 6.9 mph 17.3 mph N/A   Overcast
12:55 PM 30.6 °F 23.1 °F 26.1 °F 83% 29.93 in 10.0 mi WNW 8.1 mph - N/A   Overcast
1:15 PM 30.7 °F 24.9 °F 25.9 °F 82% 29.93 in 10.0 mi West 5.8 mph - N/A   Overcast
1:35 PM 30.9 °F 25.2 °F 25.3 °F 80% 29.94 in 10.0 mi WNW 5.8 mph 16.1 mph N/A   Overcast
1:55 PM 30.9 °F 21.7 °F 24.8 °F 78% 29.94 in 10.0 mi West 11.5 mph 18.4 mph N/A   Overcast
2:15 PM 30.7 °F 23.3 °F 25.0 °F 79% 29.95 in 10.0 mi West 8.1 mph - N/A   Overcast
2:35 PM 30.7 °F 21.4 °F 24.3 °F 77% 29.94 in 10.0 mi West 11.5 mph 18.4 mph N/A   Overcast
2:55 PM 30.2 °F 20.8 °F 23.9 °F 77% 29.96 in 7.0 mi West 11.5 mph 17.3 mph N/A   Overcast
3:15 PM 30.2 °F 20.8 °F 23.7 °F 77% 29.96 in 10.0 mi West 11.5 mph 17.3 mph N/A   Overcast
3:35 PM 29.8 °F 23.0 °F 23.7 °F 78% 29.98 in 10.0 mi WNW 6.9 mph 16.1 mph N/A   Overcast
3:55 PM 29.7 °F 20.7 °F 23.9 °F 79% 30.00 in 10.0 mi West 10.4 mph 18.4 mph N/A Snow Light Snow
4:15 PM 29.8 °F 20.9 °F 23.4 °F 77% 30.00 in 10.0 mi West 10.4 mph - N/A   Overcast
4:35 PM 29.8 °F 20.3 °F 22.6 °F 75% 30.00 in 10.0 mi WNW 11.5 mph 23.0 mph N/A   Overcast
4:55 PM 29.8 °F 22.2 °F 22.3 °F 73% 30.01 in 10.0 mi WNW 8.1 mph 16.1 mph N/A   Overcast
5:15 PM 29.8 °F 22.2 °F 22.6 °F 75% 30.02 in 10.0 mi West 8.1 mph - N/A Snow Light Snow
5:35 PM 29.3 °F 23.2 °F 23.0 °F 77% 30.03 in 10.0 mi WNW 5.8 mph - N/A Snow Light Snow
5:55 PM 29.1 °F 23.0 °F 23.9 °F 81% 30.03 in 5.0 mi West 5.8 mph - N/A Snow Light Snow
6:15 PM 28.8 °F 20.9 °F 24.4 °F 84% 30.04 in 2.5 mi West 8.1 mph - N/A Snow Light Snow
6:35 PM 28.2 °F 22.0 °F 25.3 °F 89% 30.05 in 3.0 mi West 5.8 mph - N/A Snow Light Snow
6:55 PM 28.0 °F 24.2 °F 25.7 °F 91% 30.07 in 4.0 mi West 3.5 mph - N/A Snow Light Snow
7:15 PM 27.9 °F 22.6 °F 25.7 °F 92% 30.07 in 7.0 mi West 4.6 mph - N/A Snow Light Snow
7:35 PM 27.9 °F 20.6 °F 25.3 °F 90% 30.09 in 7.0 mi WNW 6.9 mph - N/A Snow Light Snow
7:55 PM 27.9 °F 18.4 °F 23.5 °F 84% 30.09 in 10.0 mi WNW 10.4 mph 18.4 mph N/A   Overcast
8:15 PM 27.5 °F 18.0 °F 23.7 °F 86% 30.10 in 7.0 mi West 10.4 mph - N/A Snow Light Snow
8:35 PM 27.7 °F 18.2 °F 20.3 °F 74% 30.12 in 10.0 mi WNW 10.4 mph 17.3 mph N/A   Overcast
8:55 PM 27.5 °F 19.3 °F 18.9 °F 70% 30.12 in 10.0 mi WNW 8.1 mph - N/A   Overcast
9:15 PM 27.3 °F 18.4 °F 18.1 °F 68% 30.12 in 10.0 mi West 9.2 mph 16.1 mph N/A   Overcast
9:35 PM 27.3 °F 19.1 °F 17.8 °F 67% 30.12 in 10.0 mi WNW 8.1 mph - N/A   Overcast
9:55 PM 27.1 °F 19.7 °F 18.1 °F 69% 30.12 in 10.0 mi West 6.9 mph 17.3 mph N/A   Overcast
10:15 PM 27.1 °F 20.7 °F 18.3 °F 69% 30.12 in 10.0 mi WNW 5.8 mph - N/A   Overcast
10:35 PM 27.1 °F 19.7 °F 18.9 °F 71% 30.13 in 10.0 mi West 6.9 mph - N/A   Overcast
10:55 PM 26.6 °F 22.6 °F 19.4 °F 74% 30.13 in 10.0 mi West 3.5 mph - N/A   Overcast
11:15 PM 26.4 °F 22.4 °F 19.6 °F 75% 30.13 in 10.0 mi WSW 3.5 mph - N/A   Overcast
11:35 PM 26.2 °F 22.1 °F 19.4 °F 75% 30.12 in 10.0 mi WSW 3.5 mph - N/A   Overcast
11:55 PM 25.7 °F 19.0 °F 19.4 °F 77% 30.12 in 10.0 mi WSW 5.8 mph - N/A   Overcast